Tracking 29494 objects as of 7-Sep-2024
HD Live streaming from Space Station
objects crossing your sky now

NAVSTAR 81 (USA 319)

Track NAVSTAR 81 (USA 319) now!
NAVSTAR 81 (USA 319) is classified as:


NORAD ID: 48859
Int'l Code: 2021-054A
Perigee: 20,142.4 km
Apogee: 20,238.1 km
Inclination: 55.4 °
Period: 718.0 minutes
Semi major axis: 26561 km
RCS: Unknown
Launch date: June 17, 2021
Source: United States (US)
Launch site: AIR FORCE EASTERN TEST RANGE (AFETR)
PRN: 11
Your satellite tracking list
Your tracking list is empty




NASA's NSSDC Master Catalog

Two Line Element Set (TLE):
1 48859U 21054A   24251.36581935 -.00000095  00000-0  00000-0 0  9995
2 48859  55.3625 358.4497 0018014 220.0937 143.9996  2.00553450 23762
Source of the keplerian elements: AFSPC